Flag for U.S.A. Weather past 2 weeks in Yonkers, New York, U.S.A.

Now
52 °F

Mostly cloudy.


Feels Like: 47 °F
Forecast: 44 / 56 °F
Wind: 17 mph from Northwest

Location: Teterboro Airport


UV Index: 5 (Moderate)

Visibility: 10 mi


Pressure: 29.59 "Hg

Humidity: 53%

Dew point: 35 °F

Location of YonkersLocation

Historic Weather in Yonkers

°F

Yonkers temperature yesterday

Maximum temperature yesterday: 74 °F (at 2:51 PM)
Minimum temperature yesterday: 48 °F (at 2:51 AM)
Average temperature yesterday: 61 °F

Past Weeks' High & Low Weather Summary

 TemperatureHumidityPressure
High81 °F (Apr 13, 2:51 PM)89% (Apr 8, 7:51 AM)30.73 "Hg (Apr 8, 7:51 AM)
Low33 °F (Apr 16, 5:51 AM)12% (Apr 21, 3:51 PM)29.39 "Hg (Apr 8, 12:58 PM)
Average55 °F50%30.06 "Hg
* Reported Apr 8 7:51 AM — Apr 23 7:51 AM, Yonkers, Weather by CustomWeather, © 2014

Note: Actual official high and low records may vary slightly from our data, if they occured in-between our weather recording intervals... More about our weather records

Advertising

Historic Weather Conditions — Data for Previous 24 hours

 ConditionsComfort  
Time TempWeatherWind HumidityBarometerVisibility
7:51 AM
Apr 23
51 °FMostly cloudy.12 mph50%29.58 "Hg10 mi
6:51 AM51 °FPartly cloudy.14 mph52%29.56 "Hg10 mi
5:51 AM52 °FMostly cloudy.17 mph59%29.54 "Hg10 mi
4:51 AM55 °FOvercast.18 mph62%29.51 "Hg10 mi
3:51 AM56 °FPassing clouds.7 mph62%29.50 "Hg10 mi
2:51 AM58 °FPassing clouds.8 mph62%29.50 "Hg10 mi
1:51 AM59 °FClear.7 mph62%29.49 "Hg10 mi
12:51 AM58 °FClear.No wind70%29.49 "Hg10 mi
11:51 PM
Apr 22
60 °FClear.No wind67%29.50 "Hg10 mi
10:51 PM61 °FClear.6 mph67%29.51 "Hg9 mi
9:51 PM64 °FPassing clouds.3 mph63%29.52 "Hg10 mi
8:51 PM64 °FPassing clouds.8 mph63%29.53 "Hg10 mi
7:51 PM65 °FLight rain. More clouds than sun.7 mph63%29.52 "Hg7 mi
6:51 PM66 °FLight rain. Mostly cloudy.10 mph59%29.51 "Hg10 mi
5:51 PM67 °FOvercast.5 mph61%29.52 "Hg10 mi
4:51 PM68 °FLight rain. Overcast.10 mph51%29.54 "Hg10 mi
3:51 PM73 °FLight rain. Partly sunny.7 mph38%29.53 "Hg10 mi
2:51 PM74 °FPassing clouds.9 mph36%29.55 "Hg10 mi
1:51 PM71 °FSunny.10 mph39%29.57 "Hg10 mi
12:51 PM70 °FSunny.13 mph41%29.60 "Hg10 mi
11:51 AM68 °FSunny.13 mph44%29.63 "Hg10 mi
10:51 AM65 °FSunny.8 mph51%29.66 "Hg10 mi
9:51 AM60 °FSunny.9 mph60%29.69 "Hg10 mi
Weather by CustomWeather, © 2014

See weather overview